Zurück zum Katalog

COSMOS 2251 DEB

AktivVLEO
NORAD 36047·DEBRIS·🇷🇺 Russia

Gestartet Jun 16, 1993 von Plesetsk Cosmodrome

Loading…

Nächste Überflüge (nächste 24 Stunden)

TLE

AlterndSource: Space-Track

Epoche: Sep 13, 2026, 08:45 UTC

1 36047U 93036AXJ 26256.36504396  .00023832  00000-0  13092-2 0  9993
2 36047  74.0193 131.0305 0009020 130.4571 229.7411 15.13997755700725

Verfolge COSMOS 2251 DEB in Echtzeit mit AllMySat

Download on the App Store